EN

Hourly Weather Alvaro Obregon

Today, 19 January, Tuesday

Time Temperature Precipitation Wind Pressure Humidity
00:00 +13°C° 0 mm 1 mps 562 mmHg 72%
01:00 +12°C° 0 mm 1 mps 561 mmHg 72%
02:00 +12°C° 0 mm 1 mps 561 mmHg 73%
03:00 +12°C° 0 mm 1 mps 561 mmHg 74%
04:00 +11°C° 0 mm 1 mps 561 mmHg 74%
05:00 +10°C° 0 mm 0 mps 561 mmHg 75%
06:00 +11°C° 0 mm 0 mps 562 mmHg 71%
07:00 +12°C° 0 mm 0 mps 563 mmHg 68%
08:00 +13°C° 0 mm 0 mps 564 mmHg 64%
09:00 +15°C° 0 mm 0 mps 564 mmHg 57%
10:00 +18°C° 0 mm 1 mps 565 mmHg 50%
11:00 +20°C° 0 mm 1 mps 566 mmHg 43%
12:00 +20°C° 0.1 mm 1 mps 565 mmHg 42%
13:00 +21°C° 0.1 mm 1 mps 565 mmHg 41%
14:00 +21°C° 0.1 mm 1 mps 564 mmHg 40%
15:00 +20°C° 0.1 mm 1 mps 564 mmHg 44%
16:00 +19°C° 0.1 mm 1 mps 564 mmHg 47%
17:00 +18°C° 0.1 mm 2 mps 564 mmHg 51%
18:00 +18°C° 0 mm 1 mps 564 mmHg 55%
19:00 +16°C° 0 mm 1 mps 564 mmHg 58%
20:00 +15°C° 0 mm 1 mps 564 mmHg 62%
21:00 +15°C° 0 mm 1 mps 564 mmHg 63%
22:00 +14°C° 0 mm 1 mps 564 mmHg 64%
23:00 +14°C° 0 mm 1 mps 564 mmHg 65%

Tomorrow, 20 January, Wednesday

Time Temperature Precipitation Wind Pressure Humidity
00:00 +13°C° 0 mm 1 mps 564 mmHg 67%
01:00 +13°C° 0 mm 1 mps 563 mmHg 70%
02:00 +13°C° 0 mm 1 mps 563 mmHg 73%
03:00 +12°C° 0 mm 1 mps 563 mmHg 76%
04:00 +11°C° 0 mm 1 mps 563 mmHg 79%
05:00 +10°C° 0 mm 2 mps 562 mmHg 83%
06:00 +10°C° 0 mm 2 mps 563 mmHg 81%
07:00 +10°C° 0 mm 2 mps 563 mmHg 79%
08:00 +12°C° 0 mm 2 mps 564 mmHg 77%
09:00 +13°C° 0 mm 2 mps 564 mmHg 69%
10:00 +15°C° 0 mm 2 mps 565 mmHg 60%
11:00 +17°C° 0 mm 2 mps 565 mmHg 52%
12:00 +18°C° 0 mm 2 mps 565 mmHg 49%
13:00 +18°C° 0 mm 2 mps 565 mmHg 45%
14:00 +19°C° 0 mm 2 mps 565 mmHg 42%
15:00 +19°C° 0.1 mm 2 mps 565 mmHg 47%
16:00 +18°C° 0.1 mm 3 mps 564 mmHg 51%
17:00 +17°C° 0.1 mm 3 mps 564 mmHg 55%
18:00 +16°C° 0.1 mm 2 mps 564 mmHg 61%
19:00 +15°C° 0.1 mm 2 mps 564 mmHg 67%
20:00 +14°C° 0.1 mm 1 mps 564 mmHg 72%
21:00 +14°C° 0.1 mm 1 mps 564 mmHg 74%
22:00 +13°C° 0.1 mm 1 mps 564 mmHg 76%
23:00 +13°C° 0.1 mm 1 mps 564 mmHg 78%

Day after tomorrow, 21 January, Thursday

Time Temperature Precipitation Wind Pressure Humidity
00:00 +12°C° 0 mm 1 mps 564 mmHg 80%
01:00 +12°C° 0 mm 1 mps 564 mmHg 82%
02:00 +12°C° 0 mm 1 mps 563 mmHg 84%
03:00 +12°C° 0 mm 1 mps 563 mmHg 84%
04:00 +12°C° 0 mm 1 mps 563 mmHg 83%
05:00 +12°C° 0 mm 1 mps 563 mmHg 83%
06:00 +12°C° 0 mm 1 mps 564 mmHg 79%
07:00 +13°C° 0 mm 1 mps 564 mmHg 75%
08:00 +14°C° 0 mm 1 mps 565 mmHg 71%
09:00 +15°C° 0 mm 1 mps 565 mmHg 61%
10:00 +18°C° 0 mm 1 mps 566 mmHg 52%
11:00 +20°C° 0 mm 1 mps 566 mmHg 42%
12:00 +21°C° 0 mm 1 mps 566 mmHg 37%
13:00 +22°C° 0 mm 1 mps 566 mmHg 33%
14:00 +23°C° 0 mm 2 mps 565 mmHg 29%
15:00 +21°C° 0 mm 2 mps 565 mmHg 34%
16:00 +19°C° 0 mm 2 mps 564 mmHg 38%
17:00 +18°C° 0 mm 3 mps 563 mmHg 43%
18:00 +17°C° 0 mm 2 mps 563 mmHg 48%
19:00 +16°C° 0 mm 2 mps 563 mmHg 53%
20:00 +15°C° 0 mm 2 mps 563 mmHg 58%
21:00 +14°C° 0 mm 1 mps 563 mmHg 59%
22:00 +14°C° 0 mm 1 mps 563 mmHg 61%
23:00 +14°C° 0 mm 1 mps 563 mmHg 62%

22 January, Friday

Time Temperature Precipitation Wind Pressure Humidity
00:00 +13°C° 0 mm 1 mps 562 mmHg 62%
01:00 +13°C° 0 mm 1 mps 562 mmHg 63%
02:00 +12°C° 0 mm 0 mps 562 mmHg 63%
03:00 +11°C° 0 mm 0 mps 562 mmHg 63%
04:00 +11°C° 0 mm 0 mps 562 mmHg 63%
05:00 +11°C° 0 mm 0 mps 562 mmHg 63%
06:00 +12°C° 0 mm 0 mps 562 mmHg 60%
07:00 +13°C° 0 mm 0 mps 563 mmHg 56%
08:00 +14°C° 0 mm 0 mps 564 mmHg 53%
09:00 +16°C° 0 mm 0 mps 565 mmHg 47%
10:00 +19°C° 0 mm 1 mps 565 mmHg 42%
11:00 +21°C° 0 mm 1 mps 566 mmHg 36%
12:00 +22°C° 0 mm 1 mps 565 mmHg 34%
13:00 +22°C° 0 mm 1 mps 565 mmHg 31%
14:00 +23°C° 0 mm 1 mps 564 mmHg 28%
15:00 +21°C° 0 mm 2 mps 564 mmHg 32%
16:00 +20°C° 0 mm 2 mps 563 mmHg 35%
17:00 +19°C° 0 mm 2 mps 563 mmHg 39%
18:00 +18°C° 0 mm 2 mps 563 mmHg 43%
19:00 +17°C° 0 mm 2 mps 563 mmHg 47%
20:00 +16°C° 0 mm 2 mps 563 mmHg 51%
21:00 +15°C° 0 mm 1 mps 563 mmHg 51%
22:00 +15°C° 0 mm 1 mps 563 mmHg 52%
23:00 +15°C° 0 mm 1 mps 563 mmHg 52%

23 January, Saturday

Time Temperature Precipitation Wind Pressure Humidity
00:00 +15°C° 0 mm 1 mps 563 mmHg 53%
01:00 +14°C° 0 mm 0 mps 562 mmHg 55%
02:00 +13°C° 0 mm 0 mps 562 mmHg 56%
03:00 +13°C° 0 mm 0 mps 562 mmHg 58%
04:00 +12°C° 0 mm 0 mps 562 mmHg 59%
05:00 +12°C° 0 mm 0 mps 562 mmHg 61%
06:00 +13°C° 0 mm 0 mps 563 mmHg 58%
07:00 +14°C° 0 mm 0 mps 563 mmHg 55%
08:00 +15°C° 0 mm 0 mps 564 mmHg 52%
09:00 +16°C° 0 mm 0 mps 565 mmHg 46%
10:00 +20°C° 0 mm 1 mps 565 mmHg 41%
11:00 +21°C° 0 mm 1 mps 565 mmHg 35%
12:00 +21°C° 0 mm 1 mps 565 mmHg 33%
13:00 +22°C° 0 mm 1 mps 565 mmHg 31%
14:00 +21°C° 0 mm 2 mps 564 mmHg 29%
15:00 +21°C° 0 mm 2 mps 564 mmHg 32%
16:00 +20°C° 0 mm 2 mps 564 mmHg 36%
17:00 +19°C° 0 mm 2 mps 563 mmHg 40%
18:00 +18°C° 0 mm 2 mps 563 mmHg 44%
19:00 +18°C° 0 mm 1 mps 563 mmHg 47%
20:00 +16°C° 0 mm 1 mps 563 mmHg 50%
21:00 +16°C° 0 mm 1 mps 563 mmHg 52%
22:00 +15°C° 0 mm 1 mps 563 mmHg 53%
23:00 +15°C° 0 mm 1 mps 563 mmHg 54%

24 January, Sunday

Time Temperature Precipitation Wind Pressure Humidity
00:00 +15°C° 0 mm 1 mps 563 mmHg 55%
01:00 +13°C° 0 mm 0 mps 562 mmHg 56%
02:00 +13°C° 0 mm 0 mps 562 mmHg 57%
03:00 +12°C° 0 mm 0 mps 562 mmHg 58%
04:00 +12°C° 0 mm 0 mps 562 mmHg 58%
05:00 +12°C° 0 mm 0 mps 561 mmHg 58%
06:00 +13°C° 0 mm 0 mps 562 mmHg 55%
07:00 +14°C° 0 mm 0 mps 563 mmHg 51%
08:00 +15°C° 0 mm 0 mps 564 mmHg 47%
09:00 +16°C° 0 mm 0 mps 564 mmHg 42%
10:00 +18°C° 0 mm 0 mps 565 mmHg 36%
11:00 +22°C° 0 mm 1 mps 565 mmHg 31%
12:00 +22°C° 0 mm 1 mps 565 mmHg 29%
13:00 +23°C° 0 mm 1 mps 564 mmHg 27%
14:00 +23°C° 0 mm 2 mps 564 mmHg 25%
15:00 +21°C° 0 mm 2 mps 563 mmHg 29%
16:00 +20°C° 0 mm 2 mps 563 mmHg 32%
17:00 +19°C° 0 mm 3 mps 562 mmHg 36%
18:00 +18°C° 0 mm 2 mps 562 mmHg 40%
19:00 +17°C° 0 mm 2 mps 562 mmHg 43%
20:00 +15°C° 0 mm 2 mps 562 mmHg 47%
21:00 +15°C° 0 mm 2 mps 562 mmHg 48%
22:00 +14°C° 0 mm 2 mps 562 mmHg 49%
23:00 +14°C° 0 mm 1 mps 561 mmHg 50%
Show more